Mojave, CA

9:17 AM PDT on October 20, 2019 (GMT -0700)
Mojave

Weather History for KMHV - May, 2019

Change the Weather History Date:

Wednesday, May 15, 2019

  Actual Average Record
Temperature  
Mean Temperature 65 °F -  
Max Temperature 75 °F 81 °F 95 °F (2006)
Min Temperature 55 °F 55 °F 38 °F (1984)
Growing Degree Days 15 (Base 50)    
Moisture  
Dew Point 41 °F    
Average Humidity 45    
Maximum Humidity 63    
Minimum Humidity 20    
Precipitation  
Precipitation 0.00 in - - ()
Sea Level Pressure  
Sea Level Pressure 29.90 in    
Wind  
Wind Speed 13 mph (SW)    
Max Wind Speed 30 mph    
Max Gust Speed 38 mph    
Visibility 10 miles    
Events      
Averages and records for this station are not official NWS values.
T = Trace of Precipitation, MM = Missing Value Source: NWS Daily Summary

Daily Weather History Graph

Daily Weather History Graph

Search for Another Location

Airport or City:

Astronomy

May. 15, 2019 Rise Set
Actual Time 5:48 AM PDT 7:49 PM PDT
Civil Twilight 5:20 AM PDT 8:17 PM PDT
Nautical Twilight 4:46 AM PDT 8:51 PM PDT
Astronomical Twilight 4:10 AM PDT 9:28 PM PDT
Moon 4:35 PM PDT (5/15) 4:05 AM PDT (5/15)
Length of Visible Light 14h 56m
Length of Day
14h 00m
Waxing Gibbous, 88% of the Moon is Illuminated
May 15
Waxing Gibbous
May 18
Full
May 26
Last Quarter
Jun 3
New
Jun 9
First Quarter

Hourly Weather History & Observations

Time (PDT) Temp. Dew Point Humidity Pressure Visibility Wind Dir Wind Speed Gust Speed Precip Events Conditions
12:00 AM 64.4 °F 44.6 °F 49% 29.96 in 10.0 mi WSW 4.6 mph - N/A   Clear
12:20 AM 64.4 °F 44.6 °F 49% 29.96 in 10.0 mi SW 8.1 mph - N/A   Partly Cloudy
12:40 AM 64.4 °F 42.8 °F 45% 29.95 in 10.0 mi WSW 8.1 mph - N/A   Partly Cloudy
1:00 AM 62.6 °F 44.6 °F 52% 29.95 in 10.0 mi SW 6.9 mph - N/A   Clear
1:20 AM 62.6 °F 42.8 °F 48% 29.94 in 10.0 mi SSW 9.2 mph - N/A   Clear
1:40 AM 64.4 °F 42.8 °F 45% 29.94 in 10.0 mi SSW 8.1 mph - N/A   Clear
2:00 AM 62.6 °F 44.6 °F 52% 29.93 in 10.0 mi SW 8.1 mph - N/A   Clear
2:20 AM 62.6 °F 42.8 °F 48% 29.92 in 10.0 mi SW 9.2 mph - N/A   Clear
2:40 AM 62.6 °F 44.6 °F 52% 29.92 in 10.0 mi SW 9.2 mph - N/A   Clear
3:00 AM 60.8 °F 44.6 °F 55% 29.92 in 10.0 mi WSW 9.2 mph - N/A   Clear
3:20 AM 60.8 °F 46.4 °F 59% 29.92 in 10.0 mi SW 10.4 mph - N/A   Clear
3:40 AM 59.0 °F 46.4 °F 63% 29.92 in 10.0 mi SW 8.1 mph - N/A   Clear
4:00 AM 59.0 °F 46.4 °F 63% 29.92 in 10.0 mi WSW 9.2 mph - N/A   Clear
4:20 AM 59.0 °F 46.4 °F 63% 29.91 in 10.0 mi SW 6.9 mph - N/A   Clear
4:40 AM 60.8 °F 44.6 °F 55% 29.91 in 10.0 mi SW 8.1 mph - N/A   Clear
5:00 AM 60.8 °F 44.6 °F 55% 29.91 in 10.0 mi SW 9.2 mph - N/A   Partly Cloudy
5:20 AM 60.8 °F 44.6 °F 55% 29.90 in 10.0 mi SW 9.2 mph - N/A   Clear
5:40 AM 60.8 °F 44.6 °F 55% 29.90 in 10.0 mi SW 9.2 mph - N/A   Clear
6:00 AM 59.0 °F 44.6 °F 59% 29.91 in 10.0 mi SW 5.8 mph - N/A   Clear
6:20 AM 59.0 °F 44.6 °F 59% 29.91 in 10.0 mi SW 6.9 mph - N/A   Clear
6:40 AM 60.8 °F 44.6 °F 55% 29.91 in 10.0 mi SW 11.5 mph - N/A   Clear
7:00 AM 60.8 °F 44.6 °F 55% 29.91 in 10.0 mi SW 11.5 mph - N/A   Clear
7:20 AM 62.6 °F 44.6 °F 52% 29.91 in 10.0 mi SW 13.8 mph - N/A   Clear
7:40 AM 62.6 °F 44.6 °F 52% 29.92 in 10.0 mi SW 12.7 mph 18.4 mph N/A   Clear
8:00 AM 62.6 °F 46.4 °F 55% 29.91 in 10.0 mi SSW 10.4 mph - N/A   Clear
8:20 AM 64.4 °F 44.6 °F 49% 29.91 in 10.0 mi SSW 13.8 mph - N/A   Clear
8:40 AM 64.4 °F 44.6 °F 49% 29.92 in 10.0 mi SW 18.4 mph - N/A   Clear
9:00 AM 64.4 °F 44.6 °F 49% 29.92 in 10.0 mi SW 15.0 mph - N/A   Clear
9:20 AM 66.2 °F 44.6 °F 46% 29.93 in 10.0 mi SW 15.0 mph - N/A   Clear
9:40 AM 68.0 °F 44.6 °F 43% 29.93 in 10.0 mi SSW 12.7 mph - N/A   Clear
10:00 AM 69.8 °F 39.2 °F 33% 29.92 in 10.0 mi SSW 15.0 mph 20.7 mph N/A   Clear
10:20 AM 71.6 °F 37.4 °F 29% 29.92 in 10.0 mi SSW 20.7 mph - N/A   Clear
10:40 AM 71.6 °F 35.6 °F 27% 29.92 in 10.0 mi SSW 19.6 mph - N/A   Clear
11:00 AM 73.4 °F 35.6 °F 25% 29.92 in 10.0 mi SW 18.4 mph 27.6 mph N/A   Clear
11:20 AM 73.4 °F 35.6 °F 25% 29.92 in 10.0 mi SSW 17.3 mph 23.0 mph N/A   Clear
11:40 AM 73.4 °F 37.4 °F 27% 29.91 in 10.0 mi SSW 18.4 mph 26.5 mph N/A   Clear
12:00 PM 73.4 °F 37.4 °F 27% 29.91 in 10.0 mi SSW 19.6 mph 32.2 mph N/A   Clear
12:20 PM 73.4 °F 37.4 °F 27% 29.91 in 10.0 mi SSW 19.6 mph 27.6 mph N/A   Clear
12:40 PM 75.2 °F 35.6 °F 24% 29.91 in 10.0 mi South 23.0 mph 33.4 mph N/A   Clear
1:00 PM 75.2 °F 33.8 °F 22% 29.90 in 10.0 mi South 20.7 mph 29.9 mph N/A   Clear
1:20 PM 75.2 °F 32.0 °F 21% 29.91 in 10.0 mi SSW 27.6 mph - N/A   Clear
1:40 PM 75.2 °F 32.0 °F 21% 29.90 in 10.0 mi SSW 21.9 mph 32.2 mph N/A   Clear
2:00 PM 75.2 °F 32.0 °F 21% 29.89 in 10.0 mi SSW 24.2 mph 31.1 mph N/A   Clear
2:20 PM 73.4 °F 30.2 °F 20% 29.88 in 10.0 mi SSW 29.9 mph 38.0 mph N/A   Clear
2:40 PM 73.4 °F 30.2 °F 20% 29.88 in 10.0 mi SW 26.5 mph 36.8 mph N/A   Clear
3:00 PM 73.4 °F 32.0 °F 22% 29.88 in 10.0 mi SSW 27.6 mph 36.8 mph N/A   Clear
3:20 PM 73.4 °F 33.8 °F 23% 29.87 in 10.0 mi SSW 24.2 mph 33.4 mph N/A   Clear
3:40 PM 71.6 °F 33.8 °F 25% 29.87 in 10.0 mi SSW 24.2 mph 34.5 mph N/A   Clear
4:00 PM 71.6 °F 33.8 °F 25% 29.87 in 10.0 mi SSW 28.8 mph - N/A   Clear
4:20 PM 69.8 °F 35.6 °F 28% 29.87 in 10.0 mi SSW 23.0 mph 32.2 mph N/A   Clear
4:40 PM 69.8 °F 35.6 °F 28% 29.86 in 10.0 mi SSW 23.0 mph 32.2 mph N/A   Clear
5:00 PM 68.0 °F 37.4 °F 33% 29.86 in 10.0 mi SSW 21.9 mph 29.9 mph N/A   Clear
5:20 PM 68.0 °F 37.4 °F 33% 29.86 in 10.0 mi SSW 21.9 mph 27.6 mph N/A   Clear
5:40 PM 68.0 °F 39.2 °F 35% 29.86 in 10.0 mi SSW 20.7 mph 28.8 mph N/A   Clear
6:00 PM 66.2 °F 41.0 °F 40% 29.86 in 10.0 mi SSW 16.1 mph 25.3 mph N/A   Clear
6:20 PM 66.2 °F 41.0 °F 40% 29.85 in 10.0 mi SSW 16.1 mph - N/A   Clear
6:40 PM 64.4 °F 42.8 °F 45% 29.86 in 10.0 mi SSW 17.3 mph - N/A   Partly Cloudy
7:00 PM 64.4 °F 42.8 °F 45% 29.86 in 10.0 mi SSW 11.5 mph 23.0 mph N/A   Mostly Cloudy
7:20 PM 62.6 °F 44.6 °F 52% 29.87 in 10.0 mi SW 12.7 mph 20.7 mph N/A   Mostly Cloudy
7:40 PM 60.8 °F 44.6 °F 55% 29.88 in 10.0 mi SW 17.3 mph 23.0 mph N/A   Mostly Cloudy
8:00 PM 60.8 °F 44.6 °F 55% 29.87 in 10.0 mi SSW 23.0 mph 29.9 mph N/A   Mostly Cloudy
8:20 PM 59.0 °F 46.4 °F 63% 29.88 in 10.0 mi SSW 19.6 mph 25.3 mph N/A   Mostly Cloudy
8:40 PM 59.0 °F 44.6 °F 59% 29.88 in 10.0 mi SSW 19.6 mph 26.5 mph N/A   Mostly Cloudy
9:00 PM 57.2 °F 44.6 °F 63% 29.87 in 10.0 mi SSW 20.7 mph - N/A   Overcast
9:20 PM 57.2 °F 44.6 °F 63% 29.87 in 10.0 mi SSW 20.7 mph - N/A   Partly Cloudy
9:40 PM 57.2 °F 44.6 °F 63% 29.88 in 10.0 mi SSW 18.4 mph 26.5 mph N/A   Clear
10:00 PM 57.2 °F 44.6 °F 63% 29.89 in 10.0 mi SW 17.3 mph 24.2 mph N/A   Mostly Cloudy
10:20 PM 57.2 °F 42.8 °F 59% 29.88 in 10.0 mi SW 15.0 mph - N/A   Overcast
10:40 PM 55.4 °F 42.8 °F 63% 29.88 in 10.0 mi SSW 15.0 mph - N/A   Overcast
11:00 PM 55.4 °F 42.8 °F 63% 29.88 in 10.0 mi SW 19.6 mph - N/A   Overcast
11:20 PM 57.2 °F 42.8 °F 59% 29.88 in 10.0 mi SW 19.6 mph - N/A   Overcast
11:40 PM 55.4 °F 42.8 °F 63% 29.88 in 10.0 mi SW 17.3 mph - N/A   Overcast